Time,TemperatureF,DewpointF,PressureIn,WindDirection,WindDirectionDegrees,WindSpeedMPH,WindSpeedGustMPH,Humidity,HourlyPrecipIn,Conditions,Clouds,dailyrainin,SoftwareType,DateUTC
2013-05-07 00:05:00,59.4,40.7,28.94,SSE,164,0.0,0.0,50,0.00,,---,0.00,VWS V14.01,2013-05-07 05:05:00,
2013-05-07 00:15:00,58.3,41.2,28.94,SSE,165,0.0,0.0,53,0.00,,---,0.00,VWS V14.01,2013-05-07 05:15:00,
2013-05-07 00:25:00,58.1,41.6,28.94,SSE,165,0.0,0.0,54,0.00,,---,0.00,VWS V14.01,2013-05-07 05:25:00,
2013-05-07 00:35:00,58.1,41.6,28.94,SSE,165,0.0,0.0,54,0.00,,---,0.00,VWS V14.01,2013-05-07 05:35:00,
2013-05-07 00:40:00,58.1,42.0,28.94,SSE,164,0.0,0.0,55,0.00,,---,0.00,VWS V14.01,2013-05-07 05:40:00,
2013-05-07 00:50:00,57.9,41.4,28.94,SSE,165,0.0,0.0,54,0.00,,---,0.00,VWS V14.01,2013-05-07 05:50:00,
2013-05-07 01:00:00,57.7,40.7,28.94,SSE,165,0.0,0.0,53,0.00,,---,0.00,VWS V14.01,2013-05-07 06:00:00,
2013-05-07 01:10:00,57.0,40.6,28.94,SSE,165,0.0,0.0,54,0.00,,---,0.00,VWS V14.01,2013-05-07 06:10:00,
2013-05-07 01:15:00,57.0,40.6,28.94,SSE,165,0.0,0.0,54,0.00,,---,0.00,VWS V14.01,2013-05-07 06:15:00,
2013-05-07 01:25:00,56.7,40.2,28.94,SSE,165,0.0,0.0,54,0.00,,---,0.00,VWS V14.01,2013-05-07 06:25:00,
2013-05-07 01:30:00,56.7,40.2,28.94,SSE,165,0.0,0.0,54,0.00,,---,0.00,VWS V14.01,2013-05-07 06:30:00,
2013-05-07 01:35:00,56.7,40.7,28.94,SSE,165,0.0,0.0,55,0.00,,---,0.00,VWS V14.01,2013-05-07 06:35:00,
2013-05-07 01:45:00,56.5,40.0,28.94,SSE,165,0.0,0.0,54,0.00,,---,0.00,VWS V14.01,2013-05-07 06:45:00,
2013-05-07 01:50:00,56.3,39.9,28.94,SSE,165,0.0,0.0,54,0.00,,---,0.00,VWS V14.01,2013-05-07 06:50:00,
2013-05-07 02:00:00,56.1,40.2,28.94,SSE,165,0.0,0.0,55,0.00,,---,0.00,VWS V14.01,2013-05-07 07:00:00,
2013-05-07 02:05:00,55.8,41.2,28.94,SSE,165,0.0,0.0,58,0.00,,---,0.00,VWS V14.01,2013-05-07 07:05:00,
2013-05-07 02:15:00,54.9,41.2,28.94,SSE,165,0.0,0.0,60,0.00,,---,0.00,VWS V14.01,2013-05-07 07:15:00,
2013-05-07 02:25:00,54.7,41.5,28.94,SSE,165,0.0,0.0,61,0.00,,---,0.00,VWS V14.01,2013-05-07 07:25:00,
2013-05-07 02:35:00,54.7,40.7,28.94,SSE,164,0.0,0.0,59,0.00,,---,0.00,VWS V14.01,2013-05-07 07:35:00,
2013-05-07 02:45:00,54.3,39.9,28.94,SSE,164,0.0,0.0,58,0.00,,---,0.00,VWS V14.01,2013-05-07 07:45:00,
2013-05-07 02:55:00,54.1,39.3,28.94,SSE,165,0.0,0.0,57,0.00,,---,0.00,VWS V14.01,2013-05-07 07:55:00,
2013-05-07 03:00:00,53.8,39.4,28.94,SSE,165,0.0,0.0,58,0.00,,---,0.00,VWS V14.01,2013-05-07 08:00:00,
2013-05-07 03:05:00,53.6,39.6,28.94,SSE,165,0.0,0.0,59,0.00,,---,0.00,VWS V14.01,2013-05-07 08:05:00,
2013-05-07 03:10:00,53.2,39.7,28.94,SSE,164,0.0,0.0,60,0.00,,---,0.00,VWS V14.01,2013-05-07 08:10:00,
2013-05-07 03:20:00,52.9,39.8,28.94,SSE,164,0.0,0.0,61,0.00,,---,0.00,VWS V14.01,2013-05-07 08:20:00,
2013-05-07 03:30:00,52.3,40.1,28.94,SSE,165,0.0,0.0,63,0.00,,---,0.00,VWS V14.01,2013-05-07 08:30:00,
2013-05-07 03:40:00,52.3,40.1,28.94,SSE,164,0.0,0.0,63,0.00,,---,0.00,VWS V14.01,2013-05-07 08:40:00,
2013-05-07 03:45:00,52.2,40.4,28.94,SSE,165,0.0,0.0,64,0.00,,---,0.00,VWS V14.01,2013-05-07 08:45:00,
2013-05-07 03:50:00,52.2,40.0,28.94,SSE,164,0.0,0.0,63,0.00,,---,0.00,VWS V14.01,2013-05-07 08:50:00,
2013-05-07 03:55:00,52.2,40.0,28.94,SSE,165,0.0,0.0,63,0.00,,---,0.00,VWS V14.01,2013-05-07 08:55:00,
2013-05-07 04:00:00,52.0,40.2,28.94,SSE,165,0.0,0.0,64,0.00,,---,0.00,VWS V14.01,2013-05-07 09:00:00,
2013-05-07 04:10:00,51.8,40.4,28.94,SSE,165,0.0,0.0,65,0.00,,---,0.00,VWS V14.01,2013-05-07 09:10:00,
2013-05-07 04:15:00,51.6,41.0,28.94,SSE,165,0.0,0.0,67,0.00,,---,0.00,VWS V14.01,2013-05-07 09:15:00,
2013-05-07 04:20:00,51.1,40.9,28.94,SSE,165,0.0,0.0,68,0.00,,---,0.00,VWS V14.01,2013-05-07 09:20:00,
2013-05-07 04:30:00,50.5,41.1,28.94,SSE,164,0.0,0.0,70,0.00,,---,0.00,VWS V14.01,2013-05-07 09:30:00,
2013-05-07 04:40:00,50.4,41.3,28.94,SSE,165,0.0,0.0,71,0.00,,---,0.00,VWS V14.01,2013-05-07 09:40:00,
2013-05-07 04:45:00,50.4,41.0,28.97,SSE,165,0.0,0.0,70,0.00,,---,0.00,VWS V14.01,2013-05-07 09:45:00,
2013-05-07 04:55:00,50.5,40.8,28.97,SSE,164,0.0,0.0,69,0.00,,---,0.00,VWS V14.01,2013-05-07 09:55:00,
2013-05-07 05:00:00,49.8,39.3,28.94,SSE,165,0.0,0.0,67,0.00,,---,0.00,VWS V14.01,2013-05-07 10:00:00,
2013-05-07 05:05:00,50.0,40.6,28.94,SSE,164,0.0,0.0,70,0.00,,---,0.00,VWS V14.01,2013-05-07 10:05:00,
2013-05-07 05:15:00,50.7,42.8,28.97,SSE,165,0.0,0.0,74,0.00,,---,0.00,VWS V14.01,2013-05-07 10:15:00,
2013-05-07 05:20:00,50.9,42.9,28.97,SSE,165,0.0,0.0,74,0.00,,---,0.00,VWS V14.01,2013-05-07 10:20:00,
2013-05-07 05:25:00,51.3,43.3,28.97,SSE,165,0.0,0.0,74,0.00,,---,0.00,VWS V14.01,2013-05-07 10:25:00,
2013-05-07 05:30:00,51.3,43.3,28.97,SSE,164,0.0,0.0,74,0.00,,---,0.00,VWS V14.01,2013-05-07 10:30:00,
2013-05-07 05:40:00,51.3,43.3,28.97,SSE,164,0.0,0.0,74,0.00,,---,0.00,VWS V14.01,2013-05-07 10:40:00,
2013-05-07 05:50:00,50.7,42.4,28.94,SSE,165,0.0,0.0,73,0.00,,---,0.00,VWS V14.01,2013-05-07 10:50:00,
2013-05-07 05:55:00,50.2,41.5,28.94,SSE,164,0.0,0.0,72,0.00,,---,0.00,VWS V14.01,2013-05-07 10:55:00,
2013-05-07 06:00:00,49.6,41.0,29.00,SSE,164,0.0,0.0,72,0.00,,---,0.00,VWS V14.01,2013-05-07 11:00:00,
2013-05-07 06:05:00,50.0,41.7,29.00,SSE,165,0.0,0.0,73,0.00,,---,0.00,VWS V14.01,2013-05-07 11:05:00,
2013-05-07 06:15:00,50.9,43.6,29.00,SSE,164,0.0,0.0,76,0.00,,---,0.00,VWS V14.01,2013-05-07 11:15:00,
2013-05-07 06:25:00,51.1,43.4,29.00,SSE,164,0.0,0.0,75,0.00,,---,0.00,VWS V14.01,2013-05-07 11:25:00,
2013-05-07 06:30:00,51.1,43.4,28.97,SSE,165,0.0,0.0,75,0.00,,---,0.00,VWS V14.01,2013-05-07 11:30:00,
2013-05-07 06:35:00,50.9,43.3,28.97,SSE,164,0.0,0.0,75,0.00,,---,0.00,VWS V14.01,2013-05-07 11:35:00,
2013-05-07 06:40:00,50.9,42.9,28.97,SSE,164,0.0,0.0,74,0.00,,---,0.00,VWS V14.01,2013-05-07 11:40:00,
2013-05-07 06:50:00,51.1,43.1,28.97,SSE,165,0.0,0.0,74,0.00,,---,0.00,VWS V14.01,2013-05-07 11:50:00,
2013-05-07 07:00:00,51.4,43.4,29.00,SSE,164,0.0,0.0,74,0.00,,---,0.00,VWS V14.01,2013-05-07 12:00:00,
2013-05-07 07:05:00,51.6,44.0,29.00,SSE,164,0.0,0.0,75,0.00,,---,0.00,VWS V14.01,2013-05-07 12:05:00,
2013-05-07 07:15:00,52.0,44.3,29.00,SSE,164,0.0,0.0,75,0.00,,---,0.00,VWS V14.01,2013-05-07 12:15:00,
2013-05-07 07:20:00,52.0,44.3,29.00,SSE,165,0.0,0.0,75,0.00,,---,0.00,VWS V14.01,2013-05-07 12:20:00,
2013-05-07 07:25:00,52.2,44.5,29.00,SSE,165,0.0,0.0,75,0.00,,---,0.00,VWS V14.01,2013-05-07 12:25:00,
2013-05-07 07:30:00,52.7,45.4,28.97,SSE,164,0.0,0.0,76,0.00,,---,0.00,VWS V14.01,2013-05-07 12:30:00,
2013-05-07 07:35:00,53.1,46.4,28.97,SSE,164,0.0,0.0,78,0.00,,---,0.00,VWS V14.01,2013-05-07 12:35:00,
2013-05-07 07:45:00,53.8,47.8,29.00,SSE,165,0.0,0.0,80,0.00,,---,0.00,VWS V14.01,2013-05-07 12:45:00,
2013-05-07 07:50:00,54.0,47.9,29.00,SSE,164,0.0,0.0,80,0.00,,---,0.00,VWS V14.01,2013-05-07 12:50:00,
2013-05-07 08:00:00,54.7,48.3,29.00,SSE,165,0.0,0.0,79,0.00,,---,0.00,VWS V14.01,2013-05-07 13:00:00,
2013-05-07 08:10:00,55.8,49.0,29.00,SSE,163,0.0,0.0,78,0.00,,---,0.00,VWS V14.01,2013-05-07 13:10:00,
2013-05-07 08:20:00,56.7,49.2,29.00,SSE,164,0.0,0.0,76,0.00,,---,0.00,VWS V14.01,2013-05-07 13:20:00,
2013-05-07 08:25:00,56.8,49.0,29.00,SSE,164,0.0,0.0,75,0.00,,---,0.00,VWS V14.01,2013-05-07 13:25:00,
2013-05-07 08:35:00,57.2,48.6,29.03,SSE,163,0.0,0.0,73,0.00,,---,0.00,VWS V14.01,2013-05-07 13:35:00,
2013-05-07 08:40:00,57.6,48.6,29.03,SSE,164,0.0,0.0,72,0.00,,---,0.00,VWS V14.01,2013-05-07 13:40:00,
2013-05-07 08:45:00,57.7,48.4,29.00,SSE,164,0.0,0.0,71,0.00,,---,0.00,VWS V14.01,2013-05-07 13:45:00,
2013-05-07 08:50:00,57.9,48.6,29.00,SSE,163,0.0,0.0,71,0.00,,---,0.00,VWS V14.01,2013-05-07 13:50:00,
2013-05-07 09:00:00,58.8,49.1,29.00,SSE,163,0.0,0.0,70,0.00,,---,0.00,VWS V14.01,2013-05-07 14:00:00,
2013-05-07 09:10:00,59.7,48.8,29.00,ESE,111,0.0,0.0,67,0.00,,---,0.00,VWS V14.01,2013-05-07 14:10:00,
2013-05-07 09:15:00,60.6,48.8,29.00,ESE,108,0.0,0.0,65,0.00,,---,0.00,VWS V14.01,2013-05-07 14:15:00,
2013-05-07 09:25:00,61.7,48.1,29.00,South,190,0.0,0.0,61,0.00,,---,0.00,VWS V14.01,2013-05-07 14:25:00,
2013-05-07 09:35:00,62.8,47.3,29.00,South,182,0.0,0.0,57,0.00,,---,0.00,VWS V14.01,2013-05-07 14:35:00,
2013-05-07 09:40:00,63.5,46.6,29.00,SSE,164,2.2,2.2,54,0.00,,---,0.00,VWS V14.01,2013-05-07 14:40:00,
2013-05-07 09:45:00,64.2,46.2,29.03,South,172,4.0,4.0,52,0.00,,---,0.00,VWS V14.01,2013-05-07 14:45:00,
2013-05-07 09:55:00,65.5,45.3,29.03,ESE,115,3.1,3.1,48,0.00,,---,0.00,VWS V14.01,2013-05-07 14:55:00,
2013-05-07 10:05:00,66.2,44.2,28.97,South,175,3.6,3.6,45,0.00,,---,0.00,VWS V14.01,2013-05-07 15:05:00,
2013-05-07 10:10:00,66.6,44.6,28.97,SSW,208,4.0,4.0,45,0.00,,---,0.00,VWS V14.01,2013-05-07 15:10:00,
2013-05-07 10:15:00,67.1,44.5,28.97,SSE,151,0.0,0.0,44,0.00,,---,0.00,VWS V14.01,2013-05-07 15:15:00,
2013-05-07 10:25:00,68.2,44.9,28.97,ENE,75,2.7,2.7,43,0.00,,---,0.00,VWS V14.01,2013-05-07 15:25:00,
2013-05-07 10:30:00,68.5,43.3,28.97,West,261,0.0,0.0,40,0.00,,---,0.00,VWS V14.01,2013-05-07 15:30:00,
2013-05-07 10:35:00,69.3,43.9,28.97,South,175,2.7,2.7,40,0.00,,---,0.00,VWS V14.01,2013-05-07 15:35:00,
2013-05-07 10:45:00,70.5,43.0,29.06,SE,136,4.9,4.9,37,0.00,,---,0.00,VWS V14.01,2013-05-07 15:45:00,
2013-05-07 10:55:00,71.6,42.5,29.06,SE,128,5.4,5.4,35,0.00,,---,0.00,VWS V14.01,2013-05-07 15:55:00,
2013-05-07 11:00:00,72.5,42.6,29.09,South,178,2.2,2.2,34,0.00,,---,0.00,VWS V14.01,2013-05-07 16:00:00,
2013-05-07 11:10:00,73.4,42.6,29.09,SW,228,3.1,3.1,33,0.00,,---,0.00,VWS V14.01,2013-05-07 16:10:00,
2013-05-07 11:20:00,74.1,43.2,29.03,SW,229,3.1,3.1,33,0.00,,---,0.00,VWS V14.01,2013-05-07 16:20:00,
2013-05-07 11:25:00,74.7,43.7,29.03,WNW,291,4.0,4.0,33,0.00,,---,0.00,VWS V14.01,2013-05-07 16:25:00,
2013-05-07 11:30:00,73.9,43.0,29.03,WNW,293,0.0,0.0,33,0.00,,---,0.00,VWS V14.01,2013-05-07 16:30:00,
2013-05-07 11:40:00,75.0,43.2,29.03,NW,315,2.7,2.7,32,0.00,,---,0.00,VWS V14.01,2013-05-07 16:40:00,
2013-05-07 11:45:00,75.6,42.8,29.03,North,353,3.6,3.6,31,0.00,,---,0.00,VWS V14.01,2013-05-07 16:45:00,
2013-05-07 11:55:00,76.3,43.5,29.03,ENE,66,3.1,3.1,31,0.00,,---,0.00,VWS V14.01,2013-05-07 16:55:00,
2013-05-07 12:05:00,76.5,43.6,29.00,ESE,114,4.9,4.9,31,0.00,,---,0.00,VWS V14.01,2013-05-07 17:05:00,
2013-05-07 12:15:00,76.3,42.6,29.00,NNW,334,0.0,0.0,30,0.00,,---,0.00,VWS V14.01,2013-05-07 17:15:00,
2013-05-07 12:20:00,75.9,42.3,29.00,SE,140,4.0,4.0,30,0.00,,---,0.00,VWS V14.01,2013-05-07 17:20:00,
2013-05-07 12:30:00,75.0,42.4,28.97,SSE,164,6.3,6.3,31,0.00,,---,0.00,VWS V14.01,2013-05-07 17:30:00,
2013-05-07 12:35:00,74.8,42.2,28.97,SE,139,4.0,4.0,31,0.00,,---,0.00,VWS V14.01,2013-05-07 17:35:00,
2013-05-07 12:45:00,75.2,41.7,28.94,SW,214,2.7,2.7,30,0.00,,---,0.00,VWS V14.01,2013-05-07 17:45:00,
2013-05-07 12:50:00,75.6,42.0,28.94,SE,139,2.7,2.7,30,0.00,,---,0.00,VWS V14.01,2013-05-07 17:50:00,
2013-05-07 12:55:00,75.4,41.8,28.94,WNW,295,2.7,2.7,30,0.00,,---,0.00,VWS V14.01,2013-05-07 17:55:00,
2013-05-07 13:05:00,74.8,42.2,28.94,ESE,105,6.3,6.3,31,0.00,,---,0.00,VWS V14.01,2013-05-07 18:05:00,
2013-05-07 13:10:00,75.9,42.3,28.94,WSW,237,4.0,4.0,30,0.00,,---,0.00,VWS V14.01,2013-05-07 18:10:00,
2013-05-07 13:20:00,76.8,42.2,28.91,WNW,287,6.3,6.3,29,0.00,,---,0.00,VWS V14.01,2013-05-07 18:20:00,
2013-05-07 13:30:00,77.2,42.5,28.94,WSW,245,5.4,5.4,29,0.00,,---,0.00,VWS V14.01,2013-05-07 18:30:00,
2013-05-07 13:40:00,77.0,41.4,28.94,South,178,9.2,9.2,28,0.00,,---,0.00,VWS V14.01,2013-05-07 18:40:00,
2013-05-07 13:50:00,76.3,41.7,28.94,WSW,255,2.7,2.7,29,0.00,,---,0.00,VWS V14.01,2013-05-07 18:50:00,
2013-05-07 14:00:00,77.0,41.4,28.94,SSW,198,2.7,2.7,28,0.00,,---,0.00,VWS V14.01,2013-05-07 19:00:00,
2013-05-07 14:10:00,76.8,41.3,28.94,ESE,115,5.4,5.4,28,0.00,,---,0.00,VWS V14.01,2013-05-07 19:10:00,
2013-05-07 14:15:00,76.5,41.0,28.91,SE,130,4.0,4.0,28,0.00,,---,0.00,VWS V14.01,2013-05-07 19:15:00,
2013-05-07 14:25:00,75.9,40.5,28.91,ESE,117,3.6,3.6,28,0.00,,---,0.00,VWS V14.01,2013-05-07 19:25:00,
2013-05-07 14:35:00,76.5,41.0,28.94,SSE,147,5.8,5.8,28,0.00,,---,0.00,VWS V14.01,2013-05-07 19:35:00,
2013-05-07 14:40:00,77.2,40.7,28.94,SE,126,3.6,3.6,27,0.00,,---,0.00,VWS V14.01,2013-05-07 19:40:00,
2013-05-07 14:50:00,78.1,40.4,28.91,SW,227,6.3,6.3,26,0.00,,---,0.00,VWS V14.01,2013-05-07 19:50:00,
2013-05-07 14:55:00,78.3,39.6,28.91,SSE,152,3.6,3.6,25,0.00,,---,0.00,VWS V14.01,2013-05-07 19:55:00,
2013-05-07 15:00:00,78.1,39.4,28.91,West,275,5.4,5.4,25,0.00,,---,0.00,VWS V14.01,2013-05-07 20:00:00,
2013-05-07 15:10:00,77.9,40.3,28.91,West,266,4.0,4.0,26,0.00,,---,0.00,VWS V14.01,2013-05-07 20:10:00,
2013-05-07 15:20:00,78.4,39.7,28.91,WNW,302,8.1,8.1,25,0.00,,---,0.00,VWS V14.01,2013-05-07 20:20:00,
2013-05-07 15:25:00,78.6,39.9,28.91,SW,231,3.1,3.1,25,0.00,,---,0.00,VWS V14.01,2013-05-07 20:25:00,
2013-05-07 15:35:00,77.2,38.7,28.91,SSW,199,3.1,3.1,25,0.00,,---,0.00,VWS V14.01,2013-05-07 20:35:00,
2013-05-07 15:45:00,77.9,39.3,28.91,SSW,195,4.0,4.0,25,0.00,,---,0.00,VWS V14.01,2013-05-07 20:45:00,
2013-05-07 15:50:00,78.1,38.4,28.91,SSW,210,5.8,5.8,24,0.00,,---,0.00,VWS V14.01,2013-05-07 20:50:00,
2013-05-07 16:00:00,78.4,39.7,28.91,SW,230,3.1,3.1,25,0.00,,---,0.00,VWS V14.01,2013-05-07 21:00:00,
2013-05-07 16:10:00,77.5,39.0,28.91,South,191,2.2,2.2,25,0.00,,---,0.00,VWS V14.01,2013-05-07 21:10:00,
2013-05-07 16:20:00,77.2,38.7,28.88,ESE,116,3.1,3.1,25,0.00,,---,0.00,VWS V14.01,2013-05-07 21:20:00,
2013-05-07 16:30:00,76.5,39.1,28.88,East,101,2.2,2.2,26,0.00,,---,0.00,VWS V14.01,2013-05-07 21:30:00,
2013-05-07 16:35:00,77.0,38.5,28.88,West,275,4.9,4.9,25,0.00,,---,0.00,VWS V14.01,2013-05-07 21:35:00,
2013-05-07 16:45:00,77.5,39.0,28.88,South,172,3.6,3.6,25,0.00,,---,0.00,VWS V14.01,2013-05-07 21:45:00,
2013-05-07 16:55:00,77.9,38.2,28.88,South,170,0.0,0.0,24,0.00,,---,0.00,VWS V14.01,2013-05-07 21:55:00,
2013-05-07 17:05:00,78.3,38.5,28.88,West,262,3.1,3.1,24,0.00,,---,0.00,VWS V14.01,2013-05-07 22:05:00,
2013-05-07 17:10:00,78.3,38.5,28.88,SE,132,0.0,0.0,24,0.00,,---,0.00,VWS V14.01,2013-05-07 22:10:00,
2013-05-07 17:20:00,78.4,38.7,28.88,WNW,290,5.4,5.4,24,0.00,,---,0.00,VWS V14.01,2013-05-07 22:20:00,
2013-05-07 17:30:00,77.7,38.1,28.88,SSW,194,3.1,3.1,24,0.00,,---,0.00,VWS V14.01,2013-05-07 22:30:00,
2013-05-07 17:35:00,77.0,37.5,28.88,WSW,252,2.2,2.2,24,0.00,,---,0.00,VWS V14.01,2013-05-07 22:35:00,
2013-05-07 17:45:00,76.5,38.1,28.88,NW,318,2.7,2.7,25,0.00,,---,0.00,VWS V14.01,2013-05-07 22:45:00,
2013-05-07 17:55:00,76.6,38.2,28.88,WNW,289,4.0,4.0,25,0.00,,---,0.00,VWS V14.01,2013-05-07 22:55:00,
2013-05-07 18:05:00,76.5,37.0,28.88,WSW,253,3.6,3.6,24,0.00,,---,0.00,VWS V14.01,2013-05-07 23:05:00,
2013-05-07 18:10:00,76.5,37.0,28.88,SE,139,2.2,2.2,24,0.00,,---,0.00,VWS V14.01,2013-05-07 23:10:00,
2013-05-07 18:20:00,75.7,37.5,28.88,WSW,253,4.0,4.0,25,0.00,,---,0.00,VWS V14.01,2013-05-07 23:20:00,
2013-05-07 18:30:00,75.4,37.2,28.88,SSW,204,0.0,0.0,25,0.00,,---,0.00,VWS V14.01,2013-05-07 23:30:00,
2013-05-07 18:40:00,75.0,36.8,28.88,SW,218,5.8,5.8,25,0.00,,---,0.00,VWS V14.01,2013-05-07 23:40:00,
2013-05-07 18:50:00,75.0,37.8,28.85,SE,129,5.4,5.4,26,0.00,,---,0.00,VWS V14.01,2013-05-07 23:50:00,
2013-05-07 18:55:00,74.8,37.7,28.85,West,271,0.0,0.0,26,0.00,,---,0.00,VWS V14.01,2013-05-07 23:55:00,
2013-05-07 19:05:00,74.7,37.5,28.85,SE,127,4.0,4.0,26,0.00,,---,0.00,VWS V14.01,2013-05-08 00:05:00,
2013-05-07 19:15:00,73.9,37.9,28.85,SSE,168,0.0,0.0,27,0.00,,---,0.00,VWS V14.01,2013-05-08 00:15:00,
2013-05-07 19:20:00,73.8,37.7,28.85,South,177,2.2,2.2,27,0.00,,---,0.00,VWS V14.01,2013-05-08 00:20:00,
2013-05-07 19:30:00,73.4,37.4,28.85,SSE,153,0.0,0.0,27,0.00,,---,0.00,VWS V14.01,2013-05-08 00:30:00,
2013-05-07 19:40:00,73.0,38.0,28.85,SW,226,0.0,0.0,28,0.00,,---,0.00,VWS V14.01,2013-05-08 00:40:00,
2013-05-07 19:45:00,72.9,37.9,28.88,SW,225,0.0,0.0,28,0.00,,---,0.00,VWS V14.01,2013-05-08 00:45:00,
2013-05-07 19:55:00,72.3,38.3,28.88,SSE,153,0.0,0.0,29,0.00,,---,0.00,VWS V14.01,2013-05-08 00:55:00,
2013-05-07 20:00:00,72.0,38.0,28.85,SSE,168,0.0,0.0,29,0.00,,---,0.00,VWS V14.01,2013-05-08 01:00:00,
2013-05-07 20:05:00,71.6,37.7,28.85,South,169,0.0,0.0,29,0.00,,---,0.00,VWS V14.01,2013-05-08 01:05:00,
2013-05-07 20:15:00,71.1,38.1,28.85,South,169,0.0,0.0,30,0.00,,---,0.00,VWS V14.01,2013-05-08 01:15:00,
2013-05-07 20:25:00,70.2,39.0,28.85,South,169,0.0,0.0,32,0.00,,---,0.00,VWS V14.01,2013-05-08 01:25:00,
2013-05-07 20:30:00,69.8,38.6,28.85,SSE,168,0.0,0.0,32,0.00,,---,0.00,VWS V14.01,2013-05-08 01:30:00,
2013-05-07 20:35:00,69.6,39.3,28.85,SSE,168,0.0,0.0,33,0.00,,---,0.00,VWS V14.01,2013-05-08 01:35:00,
2013-05-07 20:40:00,69.4,39.1,28.85,South,169,0.0,0.0,33,0.00,,---,0.00,VWS V14.01,2013-05-08 01:40:00,
2013-05-07 20:50:00,69.1,38.8,28.88,SSE,168,0.0,0.0,33,0.00,,---,0.00,VWS V14.01,2013-05-08 01:50:00,
2013-05-07 21:00:00,68.7,38.5,28.85,SSE,168,0.0,0.0,33,0.00,,---,0.00,VWS V14.01,2013-05-08 02:00:00,
2013-05-07 21:05:00,68.5,38.3,28.85,SSE,168,0.0,0.0,33,0.00,,---,0.00,VWS V14.01,2013-05-08 02:05:00,
2013-05-07 21:15:00,67.8,38.5,28.88,SSE,168,0.0,0.0,34,0.00,,---,0.00,VWS V14.01,2013-05-08 02:15:00,
2013-05-07 21:25:00,67.5,38.1,28.88,South,169,0.0,0.0,34,0.00,,---,0.00,VWS V14.01,2013-05-08 02:25:00,
2013-05-07 21:30:00,67.3,38.0,28.88,South,169,0.0,0.0,34,0.00,,---,0.00,VWS V14.01,2013-05-08 02:30:00,
2013-05-07 21:35:00,66.9,37.7,28.88,South,169,0.0,0.0,34,0.00,,---,0.00,VWS V14.01,2013-05-08 02:35:00,
2013-05-07 21:45:00,66.4,37.9,28.88,SSE,168,0.0,0.0,35,0.00,,---,0.00,VWS V14.01,2013-05-08 02:45:00,
2013-05-07 21:55:00,66.0,38.3,28.88,South,169,0.0,0.0,36,0.00,,---,0.00,VWS V14.01,2013-05-08 02:55:00,
2013-05-07 22:00:00,65.8,38.2,28.88,South,169,0.0,0.0,36,0.00,,---,0.00,VWS V14.01,2013-05-08 03:00:00,
2013-05-07 22:05:00,65.7,38.7,28.88,South,169,0.0,0.0,37,0.00,,---,0.00,VWS V14.01,2013-05-08 03:05:00,
2013-05-07 22:10:00,65.5,38.5,28.88,SSE,168,0.0,0.0,37,0.00,,---,0.00,VWS V14.01,2013-05-08 03:10:00,
2013-05-07 22:20:00,64.8,38.6,28.88,SSE,168,0.0,0.0,38,0.00,,---,0.00,VWS V14.01,2013-05-08 03:20:00,
2013-05-07 22:25:00,64.4,39.6,28.88,South,169,0.0,0.0,40,0.00,,---,0.00,VWS V14.01,2013-05-08 03:25:00,
2013-05-07 22:35:00,63.7,40.2,28.91,SSE,168,0.0,0.0,42,0.00,,---,0.00,VWS V14.01,2013-05-08 03:35:00,
2013-05-07 22:40:00,63.5,40.6,28.91,South,169,0.0,0.0,43,0.00,,---,0.00,VWS V14.01,2013-05-08 03:40:00,
2013-05-07 22:45:00,63.1,40.3,29.00,South,169,0.0,0.0,43,0.00,,---,0.00,VWS V14.01,2013-05-08 03:45:00,
2013-05-07 22:55:00,62.4,40.8,29.00,SSE,168,0.0,0.0,45,0.00,,---,0.00,VWS V14.01,2013-05-08 03:55:00,
2013-05-07 23:00:00,62.4,40.2,28.88,South,169,0.0,0.0,44,0.00,,---,0.00,VWS V14.01,2013-05-08 04:00:00,
2013-05-07 23:05:00,62.4,40.2,28.88,South,169,0.0,0.0,44,0.00,,---,0.00,VWS V14.01,2013-05-08 04:05:00,
2013-05-07 23:10:00,62.2,40.1,28.88,SSE,168,0.0,0.0,44,0.00,,---,0.00,VWS V14.01,2013-05-08 04:10:00,
2013-05-07 23:15:00,62.1,40.5,28.88,SSE,168,0.0,0.0,45,0.00,,---,0.00,VWS V14.01,2013-05-08 04:15:00,
2013-05-07 23:20:00,61.7,40.7,28.88,South,169,0.0,0.0,46,0.00,,---,0.00,VWS V14.01,2013-05-08 04:20:00,
2013-05-07 23:25:00,61.3,40.4,28.88,SSE,168,0.0,0.0,46,0.00,,---,0.00,VWS V14.01,2013-05-08 04:25:00,
2013-05-07 23:30:00,61.0,40.1,28.91,SSE,168,0.0,0.0,46,0.00,,---,0.00,VWS V14.01,2013-05-08 04:30:00,
2013-05-07 23:40:00,60.4,40.1,28.91,South,169,0.0,0.0,47,0.00,,---,0.00,VWS V14.01,2013-05-08 04:40:00,
2013-05-07 23:45:00,60.1,40.3,28.88,South,169,0.0,0.0,48,0.00,,---,0.00,VWS V14.01,2013-05-08 04:45:00,
2013-05-07 23:50:00,59.9,40.2,28.88,South,169,0.0,0.0,48,0.00,,---,0.00,VWS V14.01,2013-05-08 04:50:00,
2013-05-07 23:55:00,59.7,40.0,28.88,SSE,168,0.0,0.0,48,0.00,,---,0.00,VWS V14.01,2013-05-08 04:55:00,